Temperature
9 9 9 9 9 9 9 9 9 9 9 10 10 10 10 10 11 11 11 11 11 11 11 11 11 12 12 12 11 11 11 11 11 9 9 8 8 8 8 8 8 8 8
8 8 8 8 8 8 8 8 8 9 9 9 9 10 10 10 10 10 10 10 10 10 11 11 11 11 11 11 11 11 11 11 10 9 8 8 8 8 8 7 7 7 7
8 8 8 8 8 8 8 8 8 8 8 9 9 9 9 9 9 9 10 10 10 10 10 10 10 11 11 11 10 10 10 10 10 9 8 7 7 7 7 7 7 7 7
8 8 7 7 7 7 7 7 7 8 8 8 8 8 8 9 9 9 9 9 9 9 9 10 10 10 10 10 10 10 9 9 9 8 8 7 7 7 7 7 7 7 7
7 7 7 7 7 7 7 7 7 7 7 7 8 8 8 8 8 8 8 8 9 9 9 9 9 9 9 9 9 9 9 9 8 8 7 7 7 7 7 7 7 7 7
7 7 7 7 7 7 7 7 7 7 7 7 7 7 8 8 8 8 8 8 8 8 8 8 8 9 9 9 9 9 9 9 8 8 8 7 7 7 7 7 7 7 7
7 7 7 7 7 7 7 7 7 7 7 7 7 7 7 7 7 7 8 8 8 8 8 8 8 8 8 8 8 9 8 8 8 8 8 8 8 7 7 7 7 7 7
7 7 7 7 6 6 6 6 6 6 7 7 7 7 7 7 7 7 7 7 7 7 7 8 8 8 8 8 8 8 8 8 8 8 8 8 8 7 8 8 7 7 7
7 7 6 6 6 6 6 6 6 6 6 6 6 7 7 7 7 7 7 7 7 7 7 7 7 7 8 8 8 8 8 7 7 7 7 7 7 7 7 7 7 7 7
6 6 6 6 6 6 6 6 6 6 6 6 6 6 6 6 7 7 7 7 7 7 7 7 7 7 7 8 8 8 7 7 7 7 7 7 7 7 7 7 7 7 7
6 6 6 6 6 6 6 6 6 6 6 6 6 6 6 6 6 7 7 7 7 7 7 7 7 7 7 7 7 7 7 7 7 7 7 7 7 7 7 8 8 8 8
6 6 6 6 6 6 6 6 6 6 6 6 6 6 6 6 6 6 7 7 7 7 7 7 7 7 7 7 7 7 7 7 7 7 7 7 7 7 8 8 8 8 8
6 6 6 6 6 6 6 6 6 6 6 6 6 6 6 6 6 6 6 7 7 7 7 7 7 7 7 7 7 7 7 7 7 8 8 7 8 8 8 8 8 8 8
6 6 6 6 6 6 6 6 6 6 6 6 6 6 6 6 6 6 6 7 7 7 7 7 7 7 7 7 7 7 7 7 7 7 8 8 8 8 8 8 8 8 8
6 6 6 6 6 6 6 6 6 6 6 6 6 6 6 6 6 6 6 7 7 7 7 7 7 7 7 7 7 7 7 7 7 8 8 8 8 8 8 8 8 8 8
6 6 6 6 6 6 6 6 6 6 6 6 6 6 6 6 6 6 6 7 7 7 7 7 7 7 7 7 8 7 7 7 7 8 8 8 8 8 8 8 8 8 8
6 6 6 6 6 6 6 6 6 6 6 6 6 6 6 6 6 6 7 7 7 7 7 7 7 8 8 8 8 8 7 7 7 7 8 8 8 8 8 8 8 8 8
6 6 6 6 6 6 6 6 6 6 6 6 6 6 6 6 7 7 7 7 7 7 7 7 8 8 8 8 8 7 7 7 7 7 7 7 8 8 8 8 8 8 8
7 7 7 7 7 7 7 7 7 7 7 6 6 6 6 7 7 7 7 7 7 7 8 8 8 8 8 8 7 7 7 7 7 7 7 7 7 8 8 8 8 8 8
7 7 7 7 7 7 7 7 7 7 7 7 7 7 7 7 7 7 7 7 7 8 8 8 8 8 8 8 7 7 7 7 7 7 7 7 7 7 7 7 7 8 8
7 7 7 7 7 7 7 7 7 7 7 7 7 7 7 7 7 7 7 7 8 8 7 7 7 8 7 7 7 7 7 7 7 7 7 7 7 7 7 7 7 7 8
7 7 7 8 8 8 8 8 8 8 8 8 8 8 8 8 8 8 8 8 8 7 7 7 7 7 7 7 7 7 7 7 7 7 7 7 7 7 7 7 7 7 7
7 8 8 8 8 8 8 8 8 8 8 8 8 8 8 8 8 8 8 8 8 8 8 7 7 7 7 7 7 7 7 7 7 7 7 7 7 7 7 7 7 7 7
8 8 8 8 8 8 8 9 9 9 9 9 9 9 9 9 8 8 8 8 8 8 8 8 7 7 7 7 7 7 7 7 7 7 7 7 7 7 7 7 7 7 7
8 8 8 8 8 9 9 9 9 9 9 9 9 9 9 9 9 9 9 8 8 8 8 8 8 8 8 8 8 8 8 8 8 8 8 8 8 8 8 7 7 7 7
8 8 9 9 9 9 9 9 9 9 9 9 9 9 9 9 9 9 9 9 9 9 8 8 8 8 8 8 8 8 8 8 8 8 8 8 8 8 8 8 8 7 7
Wind_Speed
5 5 5 5 5 5 5 5 5 6 6 7 7 7 6 6 6 5 5 5 5 4 4 3 2 2 2 2 3 4 4 5 7 5 4 6 7 8 9 9 8 8 8
4 4 5 5 5 6 6 6 6 6 6 7 7 7 8 8 7 6 6 6 5 5 4 4 3 3 3 2 4 5 5 6 10 11 6 5 5 7 7 6 6 6 6
4 4 5 5 5 5 5 5 6 6 7 7 8 8 7 7 7 7 7 6 6 6 5 4 3 4 4 4 5 6 6 8 9 10 8 5 4 5 6 4 4 3 4
4 5 5 5 5 5 5 6 6 6 7 7 8 7 7 7 7 7 7 7 7 7 6 5 5 4 5 6 6 8 9 10 10 10 9 6 5 4 5 4 3 1 2
4 4 4 4 5 6 6 7 7 7 8 7 8 8 7 7 6 7 7 8 8 8 8 7 7 8 8 7 8 8 10 10 9 9 8 6 5 5 4 3 4 2 0
4 3 3 4 5 6 6 6 7 7 7 8 8 8 8 7 10 11 8 8 8 8 8 8 8 9 11 12 12 12 11 11 10 8 7 7 5 5 4 4 4 3 1
4 4 4 5 5 5 6 6 7 6 7 8 8 8 8 9 12 13 12 9 8 8 8 8 8 8 9 9 13 14 12 12 11 9 9 7 6 5 6 5 4 3 3
4 4 4 5 5 5 6 6 6 5 6 6 7 8 8 10 13 13 13 10 9 9 9 8 8 8 8 10 11 11 10 9 9 8 8 6 6 5 5 5 5 3 1
4 4 4 4 5 5 5 5 4 5 6 6 5 7 8 8 11 13 11 8 9 10 9 9 9 9 11 13 12 12 11 8 12 13 12 10 9 9 9 5 4 4 2
3 4 4 4 4 4 4 4 4 4 5 6 7 7 8 8 10 12 10 6 8 7 8 9 12 11 12 13 10 10 10 6 6 7 7 7 6 5 6 5 5 4 2
4 4 5 4 4 4 4 3 4 5 6 6 7 7 8 8 10 11 10 6 6 6 6 6 6 12 13 13 10 7 7 6 5 6 5 4 3 3 2 2 5 5 4
5 5 5 4 3 4 5 4 4 5 6 6 6 6 6 7 9 10 11 10 8 7 5 4 5 10 11 10 7 7 9 8 5 5 4 3 2 1 1 1 2 4 5
6 6 5 5 5 5 4 4 4 4 4 4 4 5 5 6 7 12 12 12 11 6 3 5 7 10 9 7 9 9 7 5 5 4 3 1 1 1 1 2 3 2 2
6 5 5 6 6 6 5 4 4 3 4 4 4 4 4 5 5 5 5 6 8 6 5 6 9 10 8 7 7 6 4 4 4 3 1 1 2 2 2 2 2 2 3
5 5 5 5 5 5 5 5 4 2 2 4 3 3 4 3 3 4 4 4 4 4 4 4 4 4 4 4 4 4 4 4 4 3 2 3 3 2 2 2 1 2 1
5 4 4 4 4 4 5 5 8 6 7 7 6 5 3 2 2 5 6 6 5 5 5 3 3 2 2 2 2 3 3 3 2 2 3 2 2 2 2 2 2 1 1
5 4 3 3 3 3 3 4 3 4 7 7 6 6 4 3 3 5 6 6 6 5 4 2 2 1 1 1 2 2 1 1 1 2 2 2 1 1 1 2 2 2 2
4 5 5 3 3 3 3 3 3 3 1 2 3 1 1 2 4 5 6 6 5 4 2 1 0 1 1 2 1 1 1 1 1 1 1 1 1 1 1 2 2 2 2
4 3 3 3 3 3 3 3 3 3 2 1 1 3 3 3 5 5 4 3 1 2 1 0 1 1 1 1 1 1 1 0 0 1 1 2 1 1 1 2 2 4 3
3 4 4 2 2 2 3 3 3 3 3 2 2 3 1 1 2 2 1 0 0 1 1 0 0 1 2 2 1 1 1 1 1 1 1 1 1 1 1 3 3 3 3
2 2 3 2 2 2 2 3 4 4 4 4 4 5 5 3 2 3 2 2 2 2 1 1 1 1 1 2 2 2 2 1 1 1 0 1 1 1 2 2 3 3 3
3 3 2 2 2 2 2 3 3 4 5 5 4 4 7 4 3 3 3 3 3 3 4 3 2 2 3 3 3 3 3 2 2 1 1 0 0 1 2 2 3 3 4
4 4 3 3 3 3 3 2 3 4 4 5 5 4 3 4 4 4 4 4 3 4 5 5 3 3 4 5 6 6 5 4 4 4 3 1 1 1 2 2 4 4 5
4 4 4 4 3 3 3 3 3 4 4 5 5 5 5 5 5 5 5 4 5 6 7 7 7 7 7 7 6 7 8 8 7 7 5 3 3 3 2 3 4 5 5
4 4 4 4 4 4 4 4 4 4 4 5 6 5 5 5 5 5 5 6 6 7 9 9 9 10 11 10 10 10 10 10 9 8 7 5 3 3 4 4 5 6 6
4 4 4 4 4 4 4 5 5 5 5 5 6 6 6 6 6 6 5 5 6 7 9 11 12 13 14 14 14 14 14 13 12 11 9 6 4 4 5 5 7 7 8
Wind_Direction
53 51 49 38 36 38 34 26 23 21 21 25 23 25 28 28 28 37 38 40 45 38 35 50 58 78 114 127 136 134 126 125 128 116 109 120 121 124 127 126 131 134 140
62 56 49 38 37 35 29 22 24 25 24 30 30 32 34 33 32 37 41 42 45 43 36 45 47 74 93 108 127 129 128 124 129 130 124 124 120 130 131 132 140 143 151
66 60 46 38 39 35 27 26 30 36 35 34 35 33 31 33 36 39 45 46 44 40 37 46 51 80 91 97 110 120 122 121 118 129 128 125 117 127 120 127 137 136 157
71 64 55 45 43 39 37 37 38 43 45 40 38 34 34 35 37 42 49 50 47 44 42 48 55 80 101 110 111 117 119 118 120 125 126 125 120 119 122 128 123 128 175
78 68 59 52 50 48 46 43 44 45 48 42 43 37 33 38 37 48 52 55 50 48 47 52 62 78 89 107 118 122 124 122 123 123 125 121 123 131 145 152 145 135 218
83 75 68 61 58 54 52 51 50 45 41 45 43 41 40 40 46 55 59 54 49 50 50 51 61 65 75 88 103 114 125 129 131 128 129 134 142 147 139 138 133 128 214
89 85 81 72 63 57 63 57 53 48 47 46 40 44 42 36 52 59 58 59 55 51 50 54 65 65 71 85 86 86 90 106 121 129 135 143 147 155 144 137 144 153 195
94 89 87 80 72 64 64 58 54 51 51 48 41 43 46 40 54 64 62 60 58 51 50 57 67 62 76 89 90 84 82 86 104 113 129 138 145 150 150 151 155 131 54
95 100 99 94 83 74 69 61 57 61 56 50 43 43 47 34 50 64 68 64 61 51 48 51 62 69 78 89 90 89 83 76 87 102 110 115 122 133 133 108 97 95 71
100 103 107 98 92 84 77 69 63 69 67 63 51 40 44 37 49 66 70 74 67 58 51 48 56 70 73 81 89 94 91 84 88 86 79 82 87 100 125 136 139 130 128
107 97 95 88 90 86 73 65 71 69 67 61 54 40 37 36 45 61 68 72 77 70 61 47 46 68 74 76 83 90 102 106 92 90 82 68 56 53 65 131 162 153 150
104 96 89 76 73 82 80 69 70 78 74 61 56 43 29 26 39 54 65 69 78 78 65 46 48 64 70 71 75 86 92 91 88 81 75 64 54 22 352 18 164 187 195
104 99 88 71 63 67 80 82 75 78 83 68 64 57 33 22 26 42 56 64 66 65 50 49 52 56 56 54 61 76 81 86 89 86 84 43 292 281 331 357 8 14 323
113 105 96 83 67 55 54 67 81 85 100 95 87 76 49 31 24 21 27 40 43 43 32 28 40 48 51 45 45 51 58 86 101 102 92 7 4 20 20 20 18 10 5
114 109 102 93 91 74 61 49 69 60 135 132 127 119 102 63 357 24 54 37 28 23 31 37 35 33 34 31 33 37 44 56 61 51 53 42 32 26 7 8 30 42 38
119 116 113 109 101 98 93 61 40 52 72 99 124 127 96 120 72 45 41 32 27 37 57 43 33 44 55 55 54 42 41 51 59 67 62 53 39 25 7 5 33 47 333
139 142 137 134 132 133 125 118 89 30 48 69 93 106 110 106 62 44 34 29 37 61 62 37 28 47 83 95 96 92 69 43 75 81 70 51 31 16 14 3 3 2 332
145 152 152 160 165 170 170 160 149 138 97 7 6 34 67 30 17 21 31 42 31 33 46 38 36 123 128 131 127 119 106 54 53 44 25 12 11 11 3 346 335 321 308
141 150 156 166 173 178 177 174 172 165 165 198 312 322 319 342 354 7 40 61 37 4 358 353 183 151 147 158 160 145 130 110 14 27 5 355 359 14 348 325 317 315 314
148 163 157 158 175 189 184 177 184 190 195 206 228 246 290 25 357 341 352 301 257 291 280 223 174 155 151 150 143 120 83 48 38 71 29 5 2 11 324 312 310 307 298
171 180 176 159 190 196 186 187 196 198 205 214 230 235 201 188 226 253 257 246 220 204 195 171 150 142 148 144 136 124 123 138 149 145 134 11 10 352 326 315 310 309 308
188 197 205 212 208 213 216 208 198 201 209 216 234 244 218 210 224 243 250 235 217 209 203 181 164 184 183 173 159 151 148 154 166 166 171 182 350 322 327 331 326 319 315
197 206 216 222 217 219 223 225 211 207 214 216 218 223 219 219 226 228 231 231 223 218 210 192 181 186 185 190 190 180 176 191 200 194 191 217 268 288 301 306 310 313 311
204 212 215 221 224 221 228 237 228 220 217 214 216 219 222 223 222 224 225 225 219 216 212 205 199 198 203 207 211 213 213 217 218 215 212 212 242 268 281 292 297 299 298
212 215 208 211 217 220 225 235 236 231 224 217 218 223 227 224 224 227 222 221 218 219 222 222 220 218 222 225 226 226 225 226 227 228 229 226 244 259 271 279 285 291 291
217 219 215 213 217 222 225 232 237 234 227 222 221 223 224 223 224 226 219 218 219 224 229 231 231 231 234 237 237 233 231 233 237 239 237 236 245 261 269 273 282 283 286
Height
1534 1532 1531 1529 1528 1526 1524 1522 1521 1519 1518 1516 1515 1514 1512 1511 1509 1508 1507 1506 1505 1504 1504 1505 1505 1505 1507 1508 1510 1512 1514 1517 1519 1524 1528 1532 1536 1539 1543 1546 1548 1551 1553
1535 1534 1532 1530 1529 1527 1525 1523 1522 1520 1519 1517 1516 1515 1513 1512 1510 1509 1507 1506 1505 1504 1504 1504 1504 1505 1505 1507 1508 1510 1512 1515 1518 1522 1528 1532 1537 1540 1543 1546 1550 1552 1555
1536 1534 1533 1531 1530 1528 1527 1525 1524 1522 1520 1519 1517 1516 1515 1513 1512 1510 1508 1507 1506 1506 1505 1504 1504 1504 1505 1506 1507 1509 1512 1515 1519 1523 1528 1533 1537 1541 1545 1548 1551 1554 1556
1536 1535 1534 1532 1531 1530 1528 1527 1526 1524 1523 1521 1520 1518 1517 1516 1514 1512 1511 1509 1508 1507 1506 1505 1505 1505 1505 1506 1508 1510 1513 1517 1521 1526 1530 1535 1539 1543 1546 1549 1553 1555 1558
1537 1536 1535 1533 1532 1531 1530 1529 1528 1526 1525 1523 1522 1521 1520 1518 1517 1515 1514 1512 1511 1510 1509 1508 1507 1508 1508 1509 1511 1513 1516 1519 1523 1527 1532 1536 1541 1544 1547 1551 1554 1557 1559
1538 1537 1536 1535 1534 1533 1532 1531 1530 1529 1527 1526 1525 1524 1523 1521 1521 1519 1518 1516 1515 1513 1512 1512 1511 1512 1512 1513 1515 1517 1520 1523 1526 1530 1534 1538 1543 1546 1549 1552 1555 1557 1560
1539 1538 1538 1537 1536 1535 1534 1533 1532 1531 1530 1529 1528 1527 1526 1525 1524 1523 1522 1521 1519 1518 1518 1517 1516 1517 1517 1518 1520 1522 1525 1528 1532 1534 1537 1541 1545 1548 1551 1554 1556 1559 1561
1540 1540 1539 1539 1538 1537 1536 1535 1535 1534 1533 1532 1532 1531 1530 1529 1529 1528 1527 1525 1524 1524 1523 1522 1522 1522 1523 1524 1525 1527 1529 1533 1536 1539 1542 1545 1548 1551 1553 1556 1558 1560 1562
1542 1541 1541 1541 1540 1539 1539 1538 1538 1537 1536 1536 1535 1535 1534 1533 1533 1532 1532 1530 1529 1529 1529 1529 1528 1528 1529 1530 1530 1532 1534 1537 1541 1543 1546 1549 1551 1553 1555 1557 1559 1561 1562
1543 1543 1543 1543 1542 1542 1541 1541 1541 1540 1540 1539 1539 1538 1538 1538 1537 1537 1537 1536 1535 1534 1534 1534 1535 1535 1535 1536 1537 1538 1539 1542 1545 1547 1550 1552 1554 1556 1558 1559 1561 1562 1563
1545 1545 1545 1545 1545 1544 1544 1544 1544 1543 1543 1543 1542 1542 1542 1542 1541 1542 1541 1541 1540 1540 1540 1540 1540 1541 1541 1542 1543 1544 1545 1547 1549 1551 1553 1555 1557 1558 1560 1561 1562 1563 1564
1547 1547 1547 1547 1547 1547 1547 1547 1547 1547 1547 1546 1546 1546 1546 1546 1546 1545 1546 1545 1545 1545 1545 1545 1546 1546 1547 1548 1548 1550 1551 1552 1554 1555 1557 1558 1559 1561 1562 1563 1564 1564 1565
1548 1548 1549 1549 1549 1549 1549 1549 1549 1550 1550 1550 1550 1549 1550 1550 1550 1549 1550 1550 1550 1549 1550 1550 1551 1551 1552 1553 1554 1555 1556 1557 1558 1559 1560 1561 1562 1563 1564 1564 1565 1565 1566
1550 1550 1551 1551 1551 1552 1552 1552 1552 1552 1552 1553 1553 1553 1553 1553 1553 1553 1553 1553 1554 1554 1554 1554 1555 1556 1556 1557 1558 1559 1560 1560 1561 1562 1563 1563 1564 1565 1565 1566 1566 1566 1566
1551 1552 1553 1553 1553 1554 1554 1554 1555 1555 1555 1556 1556 1556 1556 1556 1556 1557 1557 1557 1557 1558 1558 1559 1559 1560 1560 1561 1562 1562 1563 1564 1564 1565 1565 1565 1566 1566 1566 1566 1567 1566 1566
1553 1554 1555 1555 1556 1556 1556 1557 1557 1558 1558 1558 1559 1558 1558 1559 1559 1559 1560 1560 1561 1561 1562 1562 1562 1563 1563 1564 1564 1565 1566 1566 1566 1567 1567 1567 1567 1567 1567 1567 1567 1566 1566
1555 1556 1557 1557 1558 1559 1559 1559 1560 1560 1560 1560 1560 1561 1561 1561 1562 1562 1563 1563 1564 1564 1564 1564 1565 1565 1566 1566 1567 1567 1567 1568 1568 1568 1568 1568 1568 1568 1567 1567 1567 1566 1565
1556 1558 1559 1559 1560 1561 1561 1562 1562 1562 1562 1562 1563 1563 1563 1564 1564 1564 1565 1566 1566 1566 1566 1566 1567 1567 1568 1568 1568 1568 1569 1569 1569 1569 1569 1568 1568 1568 1567 1567 1566 1565 1564
1558 1559 1560 1561 1562 1562 1563 1563 1564 1564 1564 1564 1564 1565 1565 1566 1566 1566 1567 1567 1567 1568 1568 1568 1568 1568 1569 1569 1569 1569 1569 1569 1569 1569 1569 1568 1568 1567 1567 1566 1565 1564 1563
1559 1561 1562 1562 1563 1564 1565 1565 1565 1566 1566 1566 1566 1566 1567 1567 1567 1568 1568 1568 1568 1568 1569 1569 1569 1569 1569 1569 1569 1569 1569 1569 1569 1569 1569 1568 1567 1567 1566 1565 1564 1562 1561
1561 1562 1563 1564 1564 1565 1566 1566 1567 1567 1567 1567 1567 1567 1568 1568 1569 1569 1569 1569 1569 1569 1569 1569 1569 1569 1569 1569 1569 1569 1569 1568 1568 1568 1568 1567 1566 1565 1564 1563 1562 1560 1559
1562 1563 1564 1564 1565 1566 1566 1567 1567 1567 1567 1568 1568 1568 1569 1569 1569 1569 1569 1569 1569 1569 1569 1568 1568 1568 1568 1568 1568 1568 1568 1567 1567 1566 1566 1565 1564 1563 1562 1561 1559 1558 1556
1562 1563 1564 1565 1565 1566 1566 1566 1567 1567 1567 1568 1568 1568 1569 1569 1569 1569 1569 1569 1568 1568 1568 1568 1567 1567 1567 1567 1567 1566 1566 1565 1565 1564 1563 1562 1561 1560 1559 1558 1557 1555 1554
1562 1563 1564 1564 1565 1565 1566 1566 1566 1566 1567 1567 1567 1568 1568 1568 1568 1568 1568 1568 1568 1567 1567 1567 1566 1566 1565 1565 1565 1564 1563 1563 1562 1561 1560 1559 1558 1557 1556 1555 1554 1552 1550
1561 1562 1563 1563 1564 1565 1565 1565 1566 1566 1566 1566 1567 1567 1567 1567 1567 1567 1567 1567 1567 1566 1566 1565 1565 1564 1564 1564 1563 1562 1561 1560 1559 1558 1557 1556 1555 1554 1553 1552 1550 1548 1546
1560 1561 1561 1562 1563 1563 1564 1564 1564 1565 1565 1565 1565 1566 1566 1566 1566 1566 1566 1565 1565 1565 1564 1564 1564 1563 1563 1562 1561 1560 1559 1558 1557 1556 1555 1554 1552 1551 1550 1548 1546 1544 1542